W4NFM Weather Reports


time (UTC)temp
C
wind
direction
speed
KPH
gust
KPH
rain 1hr
cm
rain 24hr
cm
rain mn
cm
humidity
%
barometer
mb
20260508062705 10 242 0.0 4.8 0.00 0.00 0.00 60 1016.0
20260508061805 10 240 0.0 3.2 0.00 0.00 0.00 63 1015.9
20260508060904 10 239 0.0 1.6 0.00 0.00 0.00 67 1015.9
20260508060005 10 236 0.0 1.6 0.00 0.00 0.00 64 1016.1
20260508055405 10 236 0.0 1.6 0.00 0.00 0.00 63 1015.9
20260508054504 10 0 0.0 0.0 0.00 0.00 0.00 71 1015.9
20260508053605 10 0 0.0 0.0 0.00 0.00 0.00 70 1015.9
20260508052705 10 0 0.0 0.0 0.00 0.00 0.00 72 1015.6
20260508051804 10 0 0.0 0.0 0.00 0.00 0.00 66 1015.6
20260508050926 10 287 0.0 1.6 0.00 0.00 0.00 73 1015.5
20260508050005 10 281 0.0 1.6 0.00 0.00 0.00 68 1015.5
20260508045405 10 270 0.0 1.6 0.00 0.00 0.00 74 1015.2
20260508044505 10 259 0.0 1.6 0.00 0.00 0.00 69 1015.2
20260508043605 10 261 0.0 1.6 0.00 0.00 0.00 67 1015.2
20260508042726 10 284 0.0 1.6 0.00 0.00 0.00 71 1014.9
20260508041805 10 0 0.0 0.0 0.00 0.00 0.00 69 1014.9
20260508040904 11 276 0.0 1.6 0.00 0.00 0.00 74 1014.8
20260508040005 11 0 0.0 0.0 0.00 0.00 0.00 67 1014.9
20260508035405 11 249 0.0 1.6 0.00 0.00 0.00 66 1014.6
20260508034526 11 284 0.0 1.6 0.00 0.00 0.00 67 1014.5
20260508033605 11 0 0.0 0.0 0.00 0.00 0.00 68 1014.5
20260508032726 11 292 0.0 1.6 0.00 0.00 0.00 69 1014.6
20260508031805 11 275 0.0 1.6 0.00 0.00 0.00 74 1014.4
20260508030905 11 249 0.0 1.6 0.00 0.00 0.00 72 1014.3
20260508030005 11 298 0.0 1.6 0.00 0.00 0.00 65 1014.5
20260508025405 11 260 0.0 1.6 0.00 0.00 0.00 71 1014.4
20260508024526 11 250 0.0 1.6 0.00 0.00 0.00 72 1014.3
20260508023626 12 227 0.0 1.6 0.00 0.00 0.00 65 1014.0
20260508022705 12 282 0.0 3.2 0.00 0.00 0.00 66 1014.0
20260508021805 12 0 0.0 0.0 0.00 0.00 0.00 66 1013.9
20260508020905 12 242 0.0 3.2 0.00 0.00 0.00 64 1013.8
20260508020004 12 245 0.0 3.2 0.00 0.00 0.00 63 1013.4
20260508015405 12 259 0.0 3.2 0.00 0.00 0.00 62 1013.4
20260508014505 13 239 0.0 3.2 0.00 0.00 0.00 61 1013.0
20260508013605 13 231 1.6 6.4 0.00 0.00 0.00 61 1013.1
20260508012704 13 235 1.6 3.2 0.00 0.00 0.00 64 1012.8
20260508011826 13 221 1.6 6.4 0.00 0.00 0.00 59 1012.8
20260508010904 13 241 1.6 4.8 0.00 0.00 0.00 63 1012.8
20260508010005 13 237 0.0 4.8 0.00 0.00 0.00 61 1012.6
20260508005405 13 219 1.6 4.8 0.00 0.00 0.00 62 1012.7
20260508004505 13 241 0.0 3.2 0.00 0.00 0.00 71 1012.7
20260508003605 13 242 1.6 4.8 0.00 0.00 0.00 68 1012.5
20260508002726 13 228 1.6 3.2 0.00 0.00 0.00 62 1012.1
20260508001805 13 227 1.6 3.2 0.00 0.00 0.00 60 1012.4
20260508000904 14 245 0.0 3.2 0.00 0.00 0.00 61 1012.3
20260508000005 14 228 1.6 4.8 0.00 0.00 0.00 62 1012.4
20260507235425 15 213 1.6 4.8 0.00 0.00 0.00 57 1012.3
20260507234505 15 212 1.6 6.4 0.00 0.00 0.00 58 1012.1
20260507233604 15 224 1.6 4.8 0.00 0.00 0.00 57 1011.9
20260507232705 15 222 1.6 9.7 0.00 0.00 0.00 57 1011.6
20260507231805 15 220 1.6 11.3 0.00 0.00 0.00 56 1011.4
20260507230905 15 214 1.6 6.4 0.00 0.00 0.00 57 1011.3
20260507230005 15 216 1.6 6.4 0.00 0.00 0.00 58 1011.3
20260507225404 15 227 1.6 6.4 0.00 0.00 0.00 59 1011.2
20260507224505 16 234 3.2 6.4 0.00 0.00 0.00 57 1011.1
20260507223604 16 232 3.2 6.4 0.00 0.00 0.00 59 1011.0
20260507222704 17 233 1.6 4.8 0.00 0.00 0.00 59 1010.9
20260507221804 17 212 3.2 9.7 0.00 0.00 0.00 59 1011.0
20260507220904 17 223 1.6 9.7 0.00 0.00 0.00 60 1010.8
20260507220026 17 224 1.6 9.7 0.00 0.00 0.00 67 1010.7
20260507215404 17 233 1.6 4.8 0.00 0.00 0.00 72 1010.7
20260507214505 16 261 1.6 4.8 0.00 0.00 0.00 70 1010.6
20260507213604 17 231 3.2 6.4 0.00 0.00 0.00 72 1010.8
20260507212705 17 229 3.2 6.4 0.00 0.00 0.00 71 1010.7
20260507211804 17 256 1.6 6.4 0.00 0.00 0.00 71 1010.5
20260507210904 16 234 1.6 4.8 0.00 0.00 0.00 76 1010.7
20260507210005 15 233 1.6 3.2 0.00 0.00 0.00 76 1010.5
20260507205404 15 220 3.2 4.8 0.00 0.00 0.00 77 1010.7
20260507204505 16 242 1.6 4.8 0.00 0.00 0.00 74 1010.7
20260507203604 14 279 1.6 1.6 0.00 0.00 0.00 81 1010.7
20260507202725 16 244 1.6 3.2 0.00 0.00 0.00 76 1010.6
20260507201825 16 261 1.6 3.2 0.00 0.00 0.00 74 1010.7
20260507200925 16 268 1.6 3.2 0.00 0.00 0.00 76 1010.8
20260507200025 15 272 1.6 3.2 0.00 0.00 0.00 79 1011.0
20260507195404 14 273 0.0 1.6 0.00 0.00 0.00 83 1011.2
20260507194525 13 237 1.6 3.2 0.00 0.00 0.00 83 1011.5
20260507193604 13 277 0.0 1.6 0.00 0.00 0.00 87 1011.7
20260507192705 13 285 0.0 1.6 0.00 0.00 0.00 89 1011.5
20260507191804 13 276 0.0 1.6 0.00 0.00 0.00 87 1011.6
20260507190904 13 0 0.0 0.0 0.00 0.00 0.00 89 1011.7
20260507190026 13 293 0.0 1.6 0.00 0.00 0.00 89 1011.7
20260507185425 13 312 0.0 1.6 0.00 0.00 0.00 89 1011.9
20260507184525 13 0 0.0 0.0 0.00 0.00 0.00 90 1012.4
20260507183604 13 0 0.0 0.0 0.00 0.00 0.00 91 1012.1
20260507182704 13 0 0.0 0.0 0.00 0.00 0.00 92 1012.1
20260507181804 12 0 0.0 0.0 0.00 0.00 0.00 92 1012.1
20260507180904 12 0 0.0 0.0 0.00 0.00 0.00 92 1012.3
20260507180005 12 0 0.0 0.0 0.00 0.00 0.00 92 1012.0
20260507175404 12 0 0.0 0.0 0.00 0.00 0.00 92 1012.4
20260507174504 12 308 0.0 1.6 0.00 0.00 0.00 93 1012.0
20260507173604 12 306 0.0 1.6 0.00 0.00 0.00 92 1012.3
20260507172705 12 305 0.0 3.2 0.00 0.00 0.00 90 1012.4
20260507171804 13 333 1.6 3.2 0.00 0.00 0.00 86 1012.1
20260507170904 13 311 0.0 1.6 0.00 0.00 0.00 84 1012.4
20260507170005 13 310 0.0 1.6 0.00 0.00 0.00 83 1012.1
20260507165404 13 321 0.0 1.6 0.00 0.00 0.00 84 1012.3
20260507164504 13 311 0.0 1.6 0.00 0.00 0.00 84 1012.3
20260507163604 13 297 0.0 1.6 0.00 0.00 0.00 85 1012.3
20260507162704 14 285 0.0 3.2 0.00 0.00 0.00 84 1012.3
20260507161804 14 302 0.0 1.6 0.00 0.00 0.00 83 1012.3
20260507160925 14 294 0.0 3.2 0.00 0.00 0.00 83 1012.4
20260507160005 14 299 0.0 1.6 0.00 0.00 0.00 83 1012.4
20260507155404 14 318 0.0 3.2 0.00 0.00 0.00 83 1012.5
20260507154525 14 319 0.0 1.6 0.00 0.00 0.00 83 1012.7
20260507153604 14 286 0.0 3.2 0.00 0.00 0.00 84 1012.6
20260507152704 14 319 0.0 1.6 0.00 0.00 0.00 83 1012.6
20260507151825 14 308 0.0 1.6 0.00 0.00 0.00 84 1012.7
20260507150904 14 310 0.0 1.6 0.00 0.00 0.00 83 1012.6
20260507150005 15 287 0.0 1.6 0.00 0.00 0.00 85 1012.5
20260507145404 15 303 0.0 1.6 0.00 0.00 0.00 84 1012.3
20260507144504 14 307 0.0 1.6 0.00 0.00 0.00 83 1012.5
20260507143604 14 306 0.0 1.6 0.00 0.00 0.00 84 1012.3
20260507142704 15 332 0.0 1.6 0.00 0.00 0.00 84 1012.0
20260507141804 15 291 0.0 1.6 0.00 0.00 0.00 84 1012.1
20260507140925 15 317 0.0 1.6 0.00 0.00 0.00 83 1012.5
20260507140005 15 294 0.0 1.6 0.00 0.00 0.00 85 1011.8
20260507135404 15 258 0.0 1.6 0.00 0.00 0.00 85 1011.8
20260507134525 15 261 0.0 1.6 0.00 0.00 0.00 87 1012.6
20260507133625 15 251 1.6 3.2 0.00 0.00 0.00 88 1012.6
20260507132704 15 279 0.0 1.6 0.00 0.00 0.00 86 1012.4
20260507131804 15 229 0.0 4.8 0.00 0.00 0.00 84 1012.4
20260507130904 15 230 1.6 6.4 0.00 0.00 0.00 84 1012.8
20260507130005 15 233 0.0 6.4 0.00 0.00 0.00 85 1012.6
20260507125404 15 241 0.0 6.4 0.00 0.00 0.00 88 1012.4
20260507124504 15 274 0.0 1.6 0.00 0.00 0.00 89 1012.4
20260507123604 15 270 0.0 1.6 0.00 0.00 0.00 90 1012.5
20260507122725 15 244 0.0 3.2 0.00 0.00 0.00 90 1012.7
20260507121804 15 269 0.0 3.2 0.00 0.00 0.00 92 1012.6
20260507120904 14 266 0.0 1.6 0.00 0.00 0.00 92 1012.4
20260507120005 15 251 0.0 1.6 0.00 0.00 0.00 94 1012.4
20260507115404 14 266 0.0 1.6 0.00 0.00 0.00 92 1012.1
20260507114504 14 299 0.0 1.6 0.00 0.00 0.00 94 1012.3
20260507113604 14 288 0.0 1.6 0.00 0.00 0.00 94 1012.1
20260507112704 14 252 0.0 1.6 0.00 0.00 0.00 94 1012.1
20260507111804 14 0 0.0 0.0 0.00 0.00 0.00 93 1012.0
20260507110904 14 0 0.0 0.0 0.00 0.00 0.00 92 1011.9
20260507110025 14 284 0.0 1.6 0.00 0.00 0.00 93 1012.1
20260507105425 14 267 0.0 3.2 0.00 0.00 0.00 93 1011.9
20260507104504 14 257 1.6 3.2 0.00 0.00 0.00 92 1011.8
20260507103604 14 228 0.0 4.8 0.00 0.00 0.00 91 1011.7
20260507102725 14 244 0.0 3.2 0.00 0.00 0.00 90 1011.7
20260507101804 14 244 0.0 3.2 0.00 0.00 0.00 90 1011.4
20260507100904 15 223 0.0 3.2 0.00 0.00 0.00 91 1011.6
20260507100005 15 228 0.0 3.2 0.00 0.00 0.00 91 1011.6
20260507095404 15 228 1.6 4.8 0.00 0.00 0.00 90 1011.1
20260507094504 15 298 0.0 1.6 0.00 0.00 0.00 92 1011.8
20260507093604 15 275 0.0 1.6 0.00 0.00 0.00 92 1011.3
20260507092725 15 265 0.0 1.6 0.00 0.00 0.00 92 1011.7
20260507091804 15 236 0.0 9.7 0.00 0.00 0.00 92 1011.6
20260507090904 15 307 0.0 1.6 0.00 0.00 0.00 94 1011.3
20260507090005 15 0 0.0 0.0 0.00 0.00 0.00 94 1010.6
20260507085425 15 245 0.0 1.6 0.00 0.00 0.00 95 1011.2
20260507084504 15 299 0.0 3.2 0.00 0.00 0.00 96 1011.1
20260507083625 15 311 0.0 1.6 0.00 0.00 0.00 98 1011.6
20260507082704 15 311 0.0 1.6 0.00 0.00 0.00 98 1011.5
20260507081804 15 304 0.0 1.6 0.00 0.00 0.00 99 1011.6
20260507080904 16 296 0.0 1.6 0.00 0.00 0.00 99 1011.4
20260507080004 16 0 0.0 0.0 0.00 0.00 0.00 99 1011.6
20260507075404 16 0 0.0 0.0 0.00 0.00 0.00 99 1011.3
20260507074504 16 224 0.0 1.6 0.00 0.00 0.00 99 1011.5
20260507073604 16 300 0.0 1.6 0.00 0.00 0.00 99 1011.6
20260507072704 16 0 0.0 0.0 0.00 0.00 0.00 99 1011.6
20260507071805 16 0 0.0 0.0 0.00 0.00 0.00 99 1011.2
20260507070904 16 0 0.0 0.0 0.00 0.00 0.00 99 1011.6
20260507070009 16 0 0.0 0.0 0.00 0.00 0.00 99 1011.4
20260507065404 16 0 0.0 0.0 0.00 0.00 0.00 99 1011.0
20260507064504 16 0 0.0 0.0 0.00 0.00 0.00 98 1011.3
20260507063604 16 316 0.0 1.6 0.00 0.00 0.00 98 1011.5